Taloyoak, Nunavut

6:07 AM MDT on July 28, 2017 (GMT -0600)
Taloyoak

Weather History for CYYH - January, 2013

Change the Weather History Date:

Tuesday, January 29, 2013

  Actual Average Record
Temperature  
Mean Temperature -33 °F -  
Max Temperature -26 °F -20 °F -7 °F (2003)
Min Temperature -40 °F -32 °F -43 °F (2001)
Degree Days  
Heating Degree Days 98    
Moisture  
Dew Point -33 °F    
Average Humidity 70    
Maximum Humidity 76    
Minimum Humidity 56    
Precipitation  
Precipitation 0.00 in - - ()
Sea Level Pressure  
Sea Level Pressure 29.96 in    
Wind  
Wind Speed 7 mph ()    
Max Wind Speed 17 mph    
Max Gust Speed -    
Visibility 14.2 miles    
Events Snow    
Averages and records for this station are not official NWS values.
T = Trace of Precipitation, MM = Missing Value Source: Averaged Metar Reports

Daily Weather History Graph

Daily Weather History Graph

Search for Another Location

Airport or City:

Trip Planner

Search our weather history database for the weather conditions in past years. The results will help you decide how hot, cold, wet, or windy it might be!

Date:

Astronomy

Jan. 29, 2013 Rise Set
Actual Time 10:05 AM CST 2:50 PM CST
Civil Twilight 8:39 AM CST 4:16 PM CST
Nautical Twilight 7:22 AM CST 5:34 PM CST
Astronomical Twilight 6:11 AM CST 6:44 PM CST
Moon 8:14 PM CST (1/29) 8:51 AM CST (1/29)
Length of Visible Light 7h 36m
Length of Day
4h 44m
Waning Gibbous, 93% of the Moon is Illuminated
Jan 29
Waning Gibbous
Feb 3
Last Quarter
Feb 10
New
Feb 17
First Quarter
Feb 25
Full

Hourly Weather History & Observations

Time (CST) Temp. Windchill Dew Point Humidity Pressure Visibility Wind Dir Wind Speed Gust Speed Precip Events Conditions
12:00 AM -20 °F - -25 °F 63% 30.01 in 15 mi SW 6.9 mph - - Snow Light Snow
12:00 AM -20.2 °F -37.3 °F -25.6 °F 76% 30.01 in 15.0 mi SW 6.9 mph - N/A Snow Light Snow
1:00 AM -20.2 °F -37.3 °F -25.6 °F 76% 30.00 in 15.0 mi WSW 6.9 mph - N/A Snow Light Snow
2:00 AM -22.0 °F -41.0 °F -27.4 °F 76% 29.99 in 15.0 mi WSW 8.1 mph - N/A Snow Light Snow
2:47 AM - - - N/A% - 15.0 mi West 5.8 mph - N/A   Mostly Cloudy
3:00 AM -25.6 °F -39.8 °F -31.0 °F 76% 29.99 in 15.0 mi West 4.6 mph - N/A   Scattered Clouds
4:00 AM -25.6 °F -43.8 °F -31.0 °F 76% 29.99 in 15.0 mi West 6.9 mph - N/A   Scattered Clouds
4:53 AM - - - N/A% - 14.0 mi WNW 17.3 mph - N/A   Unknown
5:00 AM -25.6 °F -53.8 °F -31.0 °F 76% 29.98 in 14.0 mi WNW 17.3 mph - N/A Snow Light Snow
6:00 AM -26 °F - -32 °F 57% 29.98 in 14 mi West 8.1 mph - - Snow Light Snow
6:00 AM -25.6 °F -46.8 °F -32.8 °F 69% 29.98 in 14.0 mi West 9.2 mph - N/A Snow Light Snow
7:00 AM -25.6 °F -41.9 °F -31.0 °F 76% 29.98 in 14.0 mi West 5.8 mph - N/A Snow Light Snow
7:54 AM - - - N/A% - 13.0 mi West 8.1 mph - N/A   Scattered Clouds
8:00 AM -27.4 °F -47.6 °F -34.6 °F 69% 29.97 in 13.0 mi West 8.1 mph - N/A   Scattered Clouds
9:00 AM -29.2 °F -49.7 °F -34.6 °F 75% 29.97 in 10.0 mi West 8.1 mph - N/A   Mostly Cloudy
10:00 AM -29.2 °F - -34.6 °F 75% 29.97 in 10.0 mi Calm Calm - N/A   Mostly Cloudy
11:00 AM -27.4 °F -44.1 °F -34.6 °F 69% 29.96 in 10.0 mi SW 5.8 mph - N/A   Mostly Cloudy
12:00 PM -28 °F - -34 °F 60% 29.94 in 15 mi WSW 6.9 mph - - Snow Snow
12:00 PM -27.4 °F -44.1 °F -32.8 °F 75% 29.94 in 15.0 mi WSW 5.8 mph - N/A   Mostly Cloudy
1:00 PM -27.4 °F -47.6 °F -34.6 °F 69% 29.93 in 15.0 mi WSW 8.1 mph - N/A   Mostly Cloudy
2:00 PM -29.2 °F -53.7 °F -40.0 °F 56% 29.92 in 15.0 mi West 11.5 mph - N/A   Scattered Clouds
3:00 PM -31.0 °F -58.1 °F -41.8 °F 56% 29.93 in 15.0 mi WNW 13.8 mph - N/A   Scattered Clouds
4:00 PM -32.8 °F -54.1 °F -38.2 °F 75% 29.94 in 15.0 mi NW 8.1 mph - N/A   Scattered Clouds
5:00 PM -34.6 °F -57.8 °F - N/A% 29.94 in 15.0 mi WNW 9.2 mph - N/A   Partly Cloudy
6:00 PM -36 °F - - % 29.93 in 15 mi Calm Calm - - Snow Light Snow
6:00 PM -36.4 °F - - N/A% 29.93 in 15.0 mi West 2.3 mph - N/A   Partly Cloudy
7:00 PM -36.4 °F -66.0 °F - N/A% 29.92 in 15.0 mi NW 15.0 mph - N/A Snow Low Drifting Snow
8:00 PM -38.2 °F -65.0 °F - N/A% 29.92 in 15.0 mi NW 11.5 mph - N/A Snow Low Drifting Snow
9:00 PM -38.2 °F -63.7 °F - N/A% 29.93 in 15.0 mi NNW 10.4 mph - N/A   Clear
10:00 PM -40.0 °F -62.9 °F - N/A% 29.94 in 15.0 mi North 8.1 mph - N/A   Clear
11:00 PM -40.0 °F -64.5 °F - N/A% 29.94 in 15.0 mi North 9.2 mph - N/A   Clear
11:29 PM - - - N/A% - 15.0 mi North 8.1 mph - N/A   Clear